Location: DARK SKY Beskydy - Park tmavé oblohy, www.darkskybeskydy.cz
(49.4926°N, 18.5016°E)
Time: 10:24:22
(UTC+02:00)

BlueWalker 3 - Pass Details

Date: 25 June 2024
Orbit: 480 x 491 km, 53.2° (Epoch: 23 July)

Event Time Altitude Azimuth Distance (km) Brightness Sun altitude
Rises 22:26:36 0° 276° (W) 2,540 6.1 -10.6°
Reaches altitude 10° 22:28:50 10° 283° (WNW) 1,659 5.3 -10.8°
Maximum altitude 22:32:27 46° 358° (N) 660 3.0 -11.1°
Drops below altitude 10° 22:36:04 10° 73° (ENE) 1,657 4.4 -11.4°
Sets 22:38:17 0° 79° (E) 2,536 5.3 -11.6°
